Location: Ústí nad Labem
(50.6611°N, 14.0531°E)
Time: 16:09:29
(UTC+02:00)

S-56A Canister/Altair - Pass Details

Date: 21 April 2024
Orbit: 638 x 2488 km, 38.9° (Epoch: 25 May)

Event Time Altitude Azimuth Distance (km) Brightness Sun altitude
Rises 22:27:21 0° 265° (W) 3,970 11.7 -18.6°
Reaches altitude 10° 22:30:22 10° 252° (WSW) 3,265 11.0 -18.9°
Maximum altitude 22:36:45 24° 202° (SSW) 2,823 10.1 -19.5°
Enters shadow 22:40:25 20° 175° (S) 3,324 10.3 -19.9°
